sat.trackr.live / text

‹ back to catalog

STARLINK-32445

NORAD 61546 · 2024-184Q

PAYLOAD ACTIVE UNKNOWN

§ Identity

Operator
Country
US
Launch date
2024-10-15
Launch site
AFWTR
Launch vehicle
Mass (kg)
RCS (m²)

Purposes: comms

External: N2YO · Heavens-Above · Gunter

§ Orbital elements

Epoch: 2026-05-25T04:00:03.998880Z

Period
93.85 min
Inclination
53.1601°
Eccentricity
0.0001088
Mean motion
15.34375111 rev/d
Perigee alt
462.0 km
Apogee alt
463.5 km
Semi-major
6,840.9 km
B*
1.0001e-3
RAAN
18.8084°
Arg perigee
76.5227°
Mean anomaly
320.3886°
Rev number
580

§ Raw data

STARLINK-324451 61546U 24184Q   26145.16671295  .00033538  00000+0  10001-2 0  99912 61546  53.1601  18.8084 0001088  76.5227 320.3886 15.34375111  5809

JSON: /api/v1/satellites/61546 · /tle

For live sub-satellite position, see the globe view (requires WebGL).

§ Visibility from observer

Set your observer location to see the next 7 days of passes ≥ 10°. The values pass through the URL so the page stays shareable.

No JS? Fill the form by hand. The geolocation button needs JavaScript.